TimeCDT,TemperatureF,Dew PointF,Humidity,Sea Level PressureIn,VisibilityMPH,Wind Direction,Wind SpeedMPH,Gust SpeedMPH,PrecipitationIn,Events,Conditions,WindDirDegrees,DateUTC
12:15 AM,48.2,44.6,87,30.21,10.0,SE,13.8,19.6,N/A,,Light Drizzle,130,2013-05-25 05:15:00
12:35 AM,48.2,44.6,87,30.21,10.0,SE,10.4,16.1,N/A,,Light Drizzle,140,2013-05-25 05:35:00
12:55 AM,48.2,44.6,87,30.20,10.0,SE,10.4,-,N/A,,Light Drizzle,130,2013-05-25 05:55:00
1:15 AM,48.2,44.6,87,30.19,10.0,ESE,10.4,16.1,N/A,,Light Drizzle,120,2013-05-25 06:15:00
1:35 AM,48.2,46.4,93,30.19,7.0,ESE,11.5,16.1,N/A,,Drizzle,120,2013-05-25 06:35:00
1:55 AM,48.2,46.4,93,30.19,10.0,ESE,12.7,18.4,N/A,,Overcast,120,2013-05-25 06:55:00
2:15 AM,48.2,46.4,93,30.18,10.0,ESE,9.2,16.1,N/A,,Light Drizzle,120,2013-05-25 07:15:00
2:35 AM,48.2,46.4,93,30.18,10.0,SE,10.4,17.3,N/A,,Light Drizzle,130,2013-05-25 07:35:00
2:55 AM,48.2,46.4,93,30.17,10.0,SE,11.5,16.1,N/A,,Drizzle,130,2013-05-25 07:55:00
3:15 AM,48.2,46.4,93,30.16,10.0,ESE,10.4,17.3,0.01,,Light Drizzle,120,2013-05-25 08:15:00
3:35 AM,48.2,46.4,93,30.14,10.0,ESE,10.4,-,0.01,,Overcast,110,2013-05-25 08:35:00
3:55 AM,48.2,48.2,100,30.13,10.0,ESE,12.7,20.7,0.01,,Overcast,110,2013-05-25 08:55:00
4:15 AM,50.0,48.2,94,30.13,10.0,ESE,9.2,16.1,N/A,,Overcast,120,2013-05-25 09:15:00
4:35 AM,50.0,48.2,94,30.13,10.0,ESE,12.7,18.4,N/A,,Overcast,120,2013-05-25 09:35:00
4:55 AM,50.0,48.2,94,30.14,10.0,ESE,13.8,17.3,N/A,,Overcast,120,2013-05-25 09:55:00
5:15 AM,50.0,48.2,94,30.14,10.0,ESE,15.0,18.4,N/A,,Overcast,120,2013-05-25 10:15:00
5:35 AM,51.8,48.2,88,30.15,10.0,ESE,15.0,18.4,N/A,,Overcast,120,2013-05-25 10:35:00
5:55 AM,51.8,48.2,88,30.15,10.0,SE,15.0,21.9,N/A,,Overcast,130,2013-05-25 10:55:00
6:15 AM,51.8,48.2,88,30.16,10.0,SE,13.8,19.6,N/A,,Overcast,130,2013-05-25 11:15:00
6:35 AM,51.8,48.2,88,30.17,10.0,ESE,13.8,-,N/A,,Overcast,120,2013-05-25 11:35:00
6:55 AM,51.8,48.2,88,30.17,10.0,ESE,13.8,18.4,N/A,,Overcast,120,2013-05-25 11:55:00
7:15 AM,51.8,48.2,88,30.16,10.0,ESE,13.8,20.7,N/A,,Overcast,120,2013-05-25 12:15:00
7:35 AM,51.8,48.2,88,30.16,10.0,ESE,12.7,21.9,N/A,,Overcast,120,2013-05-25 12:35:00
7:55 AM,53.6,48.2,82,30.16,10.0,SE,12.7,20.7,N/A,,Mostly Cloudy,130,2013-05-25 12:55:00
8:15 AM,53.6,48.2,82,30.16,10.0,ESE,10.4,16.1,N/A,,Overcast,120,2013-05-25 13:15:00
8:35 AM,53.6,50.0,88,30.16,10.0,SE,11.5,17.3,N/A,,Overcast,130,2013-05-25 13:35:00
8:55 AM,55.4,50.0,82,30.16,10.0,ESE,12.7,21.9,N/A,,Overcast,120,2013-05-25 13:55:00
9:15 AM,55.4,50.0,82,30.16,10.0,SE,12.7,21.9,N/A,,Mostly Cloudy,130,2013-05-25 14:15:00
9:35 AM,55.4,50.0,82,30.16,10.0,SE,11.5,24.2,N/A,,Overcast,140,2013-05-25 14:35:00
9:55 AM,57.2,51.8,82,30.17,10.0,SE,12.7,23.0,N/A,,Overcast,130,2013-05-25 14:55:00
10:15 AM,57.2,51.8,82,30.17,10.0,SE,12.7,21.9,N/A,,Overcast,140,2013-05-25 15:15:00
10:35 AM,57.2,50.0,77,30.18,10.0,SE,15.0,21.9,N/A,,Overcast,140,2013-05-25 15:35:00
10:55 AM,57.2,50.0,77,30.18,10.0,SE,11.5,18.4,N/A,,Overcast,140,2013-05-25 15:55:00
11:15 AM,57.2,48.2,72,30.18,10.0,SE,15.0,23.0,N/A,,Overcast,140,2013-05-25 16:15:00
11:35 AM,57.2,50.0,77,30.18,10.0,SE,13.8,20.7,N/A,,Overcast,140,2013-05-25 16:35:00
11:55 AM,59.0,50.0,72,30.17,10.0,SE,13.8,18.4,N/A,,Overcast,130,2013-05-25 16:55:00
12:15 PM,60.8,50.0,68,30.18,10.0,SE,11.5,18.4,N/A,,Overcast,130,2013-05-25 17:15:00
12:35 PM,60.8,50.0,68,30.18,10.0,SE,12.7,19.6,N/A,,Overcast,140,2013-05-25 17:35:00
12:55 PM,60.8,50.0,68,30.17,10.0,SE,12.7,-,N/A,,Overcast,140,2013-05-25 17:55:00
1:15 PM,60.8,50.0,68,30.18,10.0,SSE,12.7,20.7,N/A,,Overcast,150,2013-05-25 18:15:00
1:35 PM,60.8,48.2,63,30.18,10.0,SE,15.0,-,N/A,,Overcast,140,2013-05-25 18:35:00
1:55 PM,62.6,50.0,63,30.18,10.0,SSE,12.7,17.3,N/A,,Overcast,160,2013-05-25 18:55:00
2:15 PM,64.4,51.8,64,30.18,10.0,SE,13.8,17.3,N/A,,Mostly Cloudy,130,2013-05-25 19:15:00
2:35 PM,66.2,48.2,52,30.17,10.0,SE,16.1,21.9,N/A,,Mostly Cloudy,140,2013-05-25 19:35:00
2:55 PM,66.2,48.2,52,30.17,10.0,SE,12.7,23.0,N/A,,Scattered Clouds,130,2013-05-25 19:55:00
3:15 PM,68.0,48.2,49,30.16,10.0,SE,13.8,20.7,N/A,,Clear,140,2013-05-25 20:15:00
3:35 PM,66.2,48.2,52,30.16,10.0,SSE,12.7,27.6,N/A,,Scattered Clouds,150,2013-05-25 20:35:00
3:55 PM,68.0,46.4,46,30.15,10.0,SE,13.8,21.9,N/A,,Scattered Clouds,140,2013-05-25 20:55:00
4:15 PM,69.8,46.4,43,30.15,10.0,SE,16.1,19.6,N/A,,Clear,140,2013-05-25 21:15:00
4:35 PM,69.8,44.6,40,30.15,10.0,SE,15.0,18.4,N/A,,Clear,140,2013-05-25 21:35:00
4:55 PM,69.8,48.2,46,30.14,10.0,SE,11.5,17.3,N/A,,Clear,130,2013-05-25 21:55:00
5:15 PM,71.6,46.4,41,30.15,10.0,SE,11.5,18.4,N/A,,Clear,140,2013-05-25 22:15:00
5:35 PM,71.6,44.6,38,30.14,10.0,ESE,15.0,20.7,N/A,,Clear,120,2013-05-25 22:35:00
5:55 PM,69.8,44.6,40,30.14,10.0,ESE,9.2,19.6,N/A,,Clear,110,2013-05-25 22:55:00
6:15 PM,71.6,44.6,38,30.15,10.0,ESE,12.7,18.4,N/A,,Clear,120,2013-05-25 23:15:00
6:35 PM,71.6,44.6,38,30.13,10.0,SE,15.0,19.6,N/A,,Clear,130,2013-05-25 23:35:00
6:55 PM,69.8,44.6,40,30.14,10.0,SE,12.7,18.4,N/A,,Clear,140,2013-05-25 23:55:00
7:15 PM,68.0,46.4,46,30.15,10.0,SE,10.4,-,N/A,,Clear,140,2013-05-26 00:15:00
7:35 PM,66.2,44.6,46,30.15,10.0,SE,9.2,-,N/A,,Clear,140,2013-05-26 00:35:00
7:55 PM,66.2,46.4,49,30.15,10.0,SE,9.2,-,N/A,,Clear,130,2013-05-26 00:55:00
8:15 PM,64.4,44.6,49,30.15,10.0,SSE,6.9,-,N/A,,Clear,150,2013-05-26 01:15:00
8:35 PM,62.6,46.4,55,30.15,10.0,SSE,6.9,-,N/A,,Clear,150,2013-05-26 01:35:00
8:55 PM,60.8,46.4,59,30.16,10.0,SE,3.5,-,N/A,,Clear,140,2013-05-26 01:55:00
9:16 PM,60.8,44.6,55,30.16,10.0,ESE,4.6,-,N/A,,Clear,110,2013-05-26 02:16:00
9:35 PM,57.2,46.4,67,30.16,10.0,ESE,6.9,-,N/A,,Clear,120,2013-05-26 02:35:00
9:55 PM,57.2,46.4,67,30.17,10.0,ESE,8.1,-,N/A,,Clear,120,2013-05-26 02:55:00
10:16 PM,57.2,46.4,67,30.18,10.0,ESE,8.1,-,N/A,,Clear,120,2013-05-26 03:16:00
10:35 PM,57.2,44.6,63,30.18,10.0,SE,9.2,-,N/A,,Clear,130,2013-05-26 03:35:00
10:55 PM,55.4,46.4,72,30.19,10.0,SE,4.6,-,N/A,,Clear,130,2013-05-26 03:55:00
11:16 PM,55.4,46.4,72,30.19,10.0,SE,3.5,-,N/A,,Clear,130,2013-05-26 04:16:00
11:35 PM,53.6,44.6,72,30.20,10.0,Calm,Calm,-,N/A,,Clear,0,2013-05-26 04:35:00
11:55 PM,53.6,44.6,72,30.20,10.0,SE,6.9,-,N/A,,Clear,140,2013-05-26 04:55:00